Simultaneous Nadir Overpasses (SNOs) Predictions

Prediction of SNOs between GOES-17 and NOAA-20 Satellite Orbit:

Table of predicted SNOs for the next 14.0 days since TLE Epoch: 7/20/2024
Index Date Time (GOES-17) GOES-17 Lat,Lon NOAA-20 Lat,Lon Distance(km) Time Diff (sec)
1 07/21/2024 08:26:08 -0.04,-104.70 0.07,-105.09 44.63 80
2 07/22/2024 08:04:43 -0.04,-104.70 -0.94,-100.56 471.77 80
3 07/23/2024 20:26:40 0.04,-104.72 -0.23,-105.87 132.09 80
4 07/24/2024 20:10:36 0.04,-104.72 0.78,-101.35 384.71 80
5 07/26/2024 08:32:24 -0.05,-104.73 0.35,-106.63 215.97 80
6 07/27/2024 08:10:59 -0.05,-104.73 -0.61,-102.09 300.69 80
7 07/28/2024 20:32:56 0.05,-104.74 -0.55,-107.40 303.42 80
8 07/29/2024 20:16:52 0.05,-104.75 0.48,-102.88 213.25 80
9 07/31/2024 08:38:39 -0.06,-104.75 0.70,-108.15 387.39 80
10 08/01/2024 08:17:15 -0.06,-104.75 -0.32,-103.62 129.03 80
11 08/02/2024 20:39:11 0.07,-104.76 -0.88,-108.93 475.51 80
